Location: Newark
(13.4899°N, 1.4745°W)
Time: 12:33:56
(UTC+00:00)

Envisat - Visible Passes

Search period start: 22 July 2019 00:00
Search period end: 01 August 2019 00:00
Orbit: 764 x 766 km, 98.1° (Epoch: 22 July)

Date Brightness Start Highest point End Pass type
(mag) Time Alt. Az. Time Alt. Az. Time Alt. Az.
22 Jul 5.6 19:44:16 10° SW 19:47:36 18° W 19:50:56 10° WNW visible
23 Jul 4.0 19:05:58 10° S 19:10:50 49° WSW 19:15:44 10° NNW visible
25 Jul 5.3 19:32:20 10° SSW 19:36:21 24° W 19:40:22 10° NW visible
26 Jul 3.5 18:54:36 10° S 18:59:37 67° W 19:04:39 10° NNW visible
27 Jul 6.0 20:00:27 10° WSW 20:01:53 11° W 20:03:19 10° W visible
28 Jul 4.8 19:20:38 10° SSW 19:25:06 32° W 19:29:36 10° NW visible
30 Jul 5.7 19:47:40 10° SW 19:50:37 16° W 19:53:35 10° WNW visible
31 Jul 4.3 19:09:05 10° S 19:13:52 43° W 19:18:40 10° NNW visible
